TimeEDT,TemperatureF,Dew PointF,Humidity,Sea Level PressureIn,VisibilityMPH,Wind Direction,Wind SpeedMPH,Gust SpeedMPH,PrecipitationIn,Events,Conditions,WindDirDegrees,DateUTC
12:51 AM,54.0,37.0,53,30.24,10.0,South,9.2,-,N/A,,Overcast,190,2013-04-30 04:51:00
1:51 AM,54.0,34.0,47,30.25,10.0,South,4.6,-,N/A,,Overcast,170,2013-04-30 05:51:00
2:51 AM,53.1,34.0,48,30.25,10.0,South,5.8,-,N/A,,Overcast,170,2013-04-30 06:51:00
3:51 AM,52.0,35.1,53,30.27,10.0,SSE,5.8,-,N/A,,Overcast,150,2013-04-30 07:51:00
4:51 AM,51.1,35.1,54,30.28,10.0,Calm,Calm,-,N/A,,Overcast,0,2013-04-30 08:51:00
5:12 AM,51.8,35.6,54,30.28,10.0,South,3.5,-,N/A,,Overcast,170,2013-04-30 09:12:00
5:19 AM,50.0,35.6,58,30.28,10.0,South,4.6,-,N/A,,Overcast,170,2013-04-30 09:19:00
5:51 AM,51.1,33.1,50,30.30,10.0,SSE,4.6,-,N/A,,Overcast,160,2013-04-30 09:51:00
6:51 AM,51.1,35.1,54,30.32,10.0,SSE,3.5,-,N/A,,Overcast,160,2013-04-30 10:51:00
7:51 AM,51.1,35.1,54,30.33,10.0,SE,3.5,-,0.00,Rain,Light Rain,140,2013-04-30 11:51:00
8:51 AM,54.0,33.1,45,30.34,10.0,Calm,Calm,-,0.00,,Overcast,0,2013-04-30 12:51:00
9:51 AM,57.9,35.1,42,30.33,10.0,SE,4.6,-,N/A,,Overcast,140,2013-04-30 13:51:00
10:51 AM,60.1,37.9,44,30.32,10.0,Variable,5.8,-,N/A,,Overcast,0,2013-04-30 14:51:00
11:51 AM,63.0,41.0,45,30.31,10.0,SSE,9.2,-,N/A,,Overcast,160,2013-04-30 15:51:00
12:51 PM,64.9,43.0,45,30.30,10.0,South,9.2,-,N/A,,Overcast,170,2013-04-30 16:51:00
1:51 PM,68.0,42.8,40,30.28,10.0,SSE,10.4,19.6,N/A,,Overcast,150,2013-04-30 17:51:00
2:51 PM,69.1,42.1,38,30.28,10.0,South,6.9,-,N/A,,Overcast,190,2013-04-30 18:51:00
3:51 PM,68.0,41.0,37,30.28,10.0,South,3.5,-,N/A,,Overcast,170,2013-04-30 19:51:00
4:51 PM,69.1,39.0,33,30.28,10.0,Calm,Calm,-,N/A,,Overcast,0,2013-04-30 20:51:00
5:51 PM,66.9,44.1,44,30.29,10.0,Variable,4.6,-,N/A,,Overcast,0,2013-04-30 21:51:00
6:51 PM,66.0,44.1,45,30.30,10.0,Calm,Calm,-,N/A,,Overcast,0,2013-04-30 22:51:00
7:51 PM,62.1,46.0,56,30.30,10.0,Calm,Calm,-,N/A,,Overcast,0,2013-04-30 23:51:00
8:51 PM,57.0,45.0,64,30.32,10.0,Calm,Calm,-,N/A,,Overcast,0,2013-05-01 00:51:00
9:51 PM,54.0,44.1,69,30.33,10.0,Calm,Calm,-,N/A,,Scattered Clouds,0,2013-05-01 01:51:00
10:51 PM,57.9,37.9,47,30.34,10.0,SSE,6.9,-,N/A,,Clear,150,2013-05-01 02:51:00
11:51 PM,54.0,32.0,43,30.35,10.0,South,3.5,-,N/A,,Clear,190,2013-05-01 03:51:00